Location: Newark
(52.2128°N, 21.0240°E)
Time: 08:41:34
(UTC+00:00)

X-37B - Visible Passes

Search period start: 01 October 2020 00:00
Search period end: 11 October 2020 00:00
Orbit: 386 x 387 km, 45.0° (Epoch: 18 September)

Date Brightness Start Highest point End Pass type
(mag) Time Alt. Az. Time Alt. Az. Time Alt. Az.
04 Oct 3.0 17:18:17 10° S 17:19:09 11° SSE 17:19:29 11° SSE visible
05 Oct 2.7 17:54:22 10° SSW 17:55:54 17° S 17:55:54 17° S visible
06 Oct 2.8 16:56:27 10° SSW 16:58:19 15° SSE 16:59:58 11° SE visible
06 Oct 3.4 18:31:44 10° SW 18:32:15 13° SW 18:32:15 13° SW visible
07 Oct 2.2 17:33:24 10° SW 17:35:54 21° S 17:36:16 21° SSE visible
08 Oct 2.6 16:35:15 10° SSW 16:37:31 18° SSE 16:39:48 10° ESE visible
08 Oct 2.8 18:11:01 10° WSW 18:12:31 19° SSW 18:12:31 19° SSW visible
09 Oct 2.3 17:12:36 10° SW 17:15:09 22° S 17:16:30 17° SE visible
10 Oct 2.6 17:50:24 10° WSW 17:52:44 20° SSW 17:52:44 20° SSW visible
